Powrót do katalogu

ATLAS 5 CENTAUR DEB

LostHEO
NORAD 47342·DEBRIS·🇺🇸 United States

Wystrzelony Oct 17, 2018 z Cape Canaveral Space Force Station

Loading…

Następne Przeloty (najbliższe 24 godziny)

TLE

NieaktualneSource: Space-Track

Epoka: Apr 8, 2024, 21:36 UTC

1 47342U 18079EP  24099.90059332 -.00000085  00000-0  00000+0 0  9993
2 47342  12.7788  80.1270 4920932 255.9338  46.6164  1.98856627 23843

Śledź ATLAS 5 CENTAUR DEB w czasie rzeczywistym z AllMySat

Download on the App Store